When you browse on this site, cookies collect data to enhance your experience and personalize the content and advertising you see.
Visit our Privacy Policy to learn more. By continuing to use the site, you agree to this use of cookies and data.
  • In Switzerland
  • List of Countries
  • For 7 days
  • Water Temperature
  • Weather Map
  • Weather Widgets
  • user-avatar
    Login

    Hourly Weather Exeter

    Today, 23 October, Wednesday

    Time Temperature Precipitation Wind Pressure Humidity
    00:00 +8°C° 0 mm 1 mps 757 mmHg 90%
    01:00 +8°C° 0 mm 1 mps 756 mmHg 90%
    02:00 +8°C° 0 mm 1 mps 755 mmHg 90%
    03:00 +7°C° 0 mm 1 mps 754 mmHg 91%
    04:00 +7°C° 0 mm 1 mps 754 mmHg 91%
    05:00 +7°C° 0 mm 1 mps 754 mmHg 91%
    06:00 +8°C° 0 mm 1 mps 754 mmHg 94%
    07:00 +9°C° 0 mm 1 mps 753 mmHg 93%
    08:00 +10°C° 0 mm 1 mps 753 mmHg 91%
    09:00 +11°C° 0 mm 1 mps 752 mmHg 90%
    10:00 +12°C° 0 mm 2 mps 752 mmHg 89%
    11:00 +13°C° 0 mm 2 mps 751 mmHg 87%
    12:00 +13°C° 0 mm 3 mps 751 mmHg 86%
    13:00 +14°C° 0.1 mm 2 mps 750 mmHg 88%
    14:00 +13°C° 0.1 mm 2 mps 750 mmHg 90%
    15:00 +13°C° 0.1 mm 1 mps 749 mmHg 92%
    16:00 +13°C° 0.1 mm 1 mps 748 mmHg 93%
    17:00 +12°C° 0.1 mm 1 mps 748 mmHg 94%
    18:00 +12°C° 0.1 mm 1 mps 748 mmHg 95%
    19:00 +12°C° 0.2 mm 1 mps 748 mmHg 95%
    20:00 +12°C° 0.2 mm 1 mps 748 mmHg 95%
    21:00 +11°C° 0.2 mm 1 mps 747 mmHg 95%
    22:00 +11°C° 0 mm 1 mps 747 mmHg 95%
    23:00 +10°C° 0 mm 1 mps 746 mmHg 95%

    Tomorrow, 24 October, Thursday

    Time Temperature Precipitation Wind Pressure Humidity
    00:00 +10°C° 0 mm 1 mps 746 mmHg 95%
    01:00 +10°C° 0 mm 1 mps 746 mmHg 94%
    02:00 +9°C° 0 mm 1 mps 745 mmHg 93%
    03:00 +9°C° 0 mm 1 mps 745 mmHg 92%
    04:00 +9°C° 0 mm 1 mps 745 mmHg 90%
    05:00 +9°C° 0 mm 1 mps 745 mmHg 88%
    06:00 +9°C° 0 mm 1 mps 744 mmHg 86%
    07:00 +9°C° 0.2 mm 1 mps 744 mmHg 88%
    08:00 +10°C° 0.2 mm 1 mps 744 mmHg 89%
    09:00 +11°C° 0.2 mm 1 mps 744 mmHg 91%
    10:00 +12°C° 0.2 mm 2 mps 744 mmHg 89%
    11:00 +12°C° 0.2 mm 3 mps 745 mmHg 88%
    12:00 +13°C° 0.2 mm 4 mps 745 mmHg 86%
    13:00 +13°C° 0.1 mm 5 mps 745 mmHg 83%
    14:00 +13°C° 0.1 mm 6 mps 746 mmHg 81%
    15:00 +13°C° 0.1 mm 6 mps 746 mmHg 79%
    16:00 +10°C° 0 mm 6 mps 747 mmHg 82%
    17:00 +9°C° 0 mm 6 mps 747 mmHg 86%
    18:00 +8°C° 0 mm 5 mps 748 mmHg 89%
    19:00 +8°C° 0 mm 5 mps 749 mmHg 89%
    20:00 +7°C° 0 mm 5 mps 749 mmHg 90%
    21:00 +7°C° 0 mm 4 mps 750 mmHg 90%
    22:00 +7°C° 0 mm 4 mps 751 mmHg 90%
    23:00 +7°C° 0 mm 4 mps 751 mmHg 90%

    Day after tomorrow, 25 October, Friday

    Time Temperature Precipitation Wind Pressure Humidity
    00:00 +7°C° 0 mm 4 mps 752 mmHg 90%
    01:00 +7°C° 0 mm 3 mps 752 mmHg 90%
    02:00 +7°C° 0 mm 3 mps 752 mmHg 90%
    03:00 +7°C° 0 mm 2 mps 752 mmHg 90%
    04:00 +8°C° 0.1 mm 2 mps 752 mmHg 90%
    05:00 +8°C° 0.1 mm 2 mps 752 mmHg 90%
    06:00 +10°C° 0.1 mm 1 mps 752 mmHg 90%
    07:00 +9°C° 0.7 mm 2 mps 751 mmHg 91%
    08:00 +10°C° 0.7 mm 3 mps 751 mmHg 93%
    09:00 +10°C° 0.7 mm 4 mps 750 mmHg 95%
    10:00 +10°C° 0.5 mm 5 mps 749 mmHg 94%
    11:00 +12°C° 0.5 mm 7 mps 749 mmHg 92%
    12:00 +13°C° 0.5 mm 9 mps 748 mmHg 91%
    13:00 +13°C° 0.2 mm 10 mps 747 mmHg 91%
    14:00 +13°C° 0.2 mm 12 mps 746 mmHg 91%
    15:00 +13°C° 0.2 mm 13 mps 745 mmHg 90%
    16:00 +13°C° 0.7 mm 13 mps 745 mmHg 91%
    17:00 +13°C° 0.7 mm 14 mps 744 mmHg 91%
    18:00 +13°C° 0.7 mm 14 mps 744 mmHg 92%
    19:00 +13°C° 1.8 mm 13 mps 745 mmHg 92%
    20:00 +13°C° 1.8 mm 13 mps 745 mmHg 93%
    21:00 +13°C° 1.8 mm 12 mps 745 mmHg 94%
    22:00 +12°C° 1.7 mm 10 mps 745 mmHg 94%
    23:00 +11°C° 1.7 mm 9 mps 745 mmHg 94%

    26 October, Saturday

    Time Temperature Precipitation Wind Pressure Humidity
    00:00 +9°C° 1.7 mm 7 mps 745 mmHg 95%
    01:00 +9°C° 0.7 mm 6 mps 746 mmHg 94%
    02:00 +8°C° 0.7 mm 5 mps 746 mmHg 93%
    03:00 +7°C° 0.7 mm 4 mps 747 mmHg 92%
    04:00 +7°C° 0.5 mm 4 mps 747 mmHg 92%
    05:00 +7°C° 0.5 mm 3 mps 748 mmHg 92%
    06:00 +7°C° 0.5 mm 2 mps 748 mmHg 93%
    07:00 +7°C° 0.3 mm 2 mps 749 mmHg 92%
    08:00 +7°C° 0.3 mm 2 mps 750 mmHg 92%
    09:00 +8°C° 0.3 mm 1 mps 750 mmHg 92%
    10:00 +8°C° 0.2 mm 1 mps 751 mmHg 90%
    11:00 +9°C° 0.2 mm 1 mps 751 mmHg 89%
    12:00 +9°C° 0.2 mm 1 mps 752 mmHg 88%
    13:00 +8°C° 0 mm 2 mps 752 mmHg 86%
    14:00 +8°C° 0 mm 2 mps 752 mmHg 84%
    15:00 +8°C° 0 mm 2 mps 752 mmHg 83%
    16:00 +8°C° 0 mm 2 mps 752 mmHg 83%
    17:00 +7°C° 0 mm 2 mps 753 mmHg 84%
    18:00 +7°C° 0 mm 2 mps 753 mmHg 85%
    19:00 +7°C° 0 mm 2 mps 753 mmHg 84%
    20:00 +7°C° 0 mm 2 mps 754 mmHg 83%
    21:00 +7°C° 0 mm 2 mps 754 mmHg 82%
    22:00 +5°C° 0 mm 3 mps 754 mmHg 80%
    23:00 +5°C° 0 mm 3 mps 755 mmHg 79%

    27 October, Sunday

    Time Temperature Precipitation Wind Pressure Humidity
    00:00 +5°C° 0 mm 3 mps 755 mmHg 78%
    01:00 +5°C° 0 mm 3 mps 755 mmHg 77%
    02:00 +4°C° 0 mm 3 mps 756 mmHg 77%
    03:00 +4°C° 0 mm 4 mps 756 mmHg 77%
    04:00 +4°C° 0 mm 3 mps 756 mmHg 79%
    05:00 +3°C° 0 mm 3 mps 757 mmHg 81%
    06:00 +3°C° 0 mm 3 mps 757 mmHg 83%
    07:00 +4°C° 0 mm 4 mps 758 mmHg 81%
    08:00 +5°C° 0 mm 4 mps 758 mmHg 78%
    09:00 +6°C° 0 mm 5 mps 759 mmHg 75%
    10:00 +6°C° 0 mm 5 mps 759 mmHg 73%
    11:00 +7°C° 0 mm 5 mps 760 mmHg 70%
    12:00 +8°C° 0 mm 5 mps 760 mmHg 67%
    13:00 +8°C° 0 mm 5 mps 760 mmHg 67%
    14:00 +8°C° 0 mm 5 mps 760 mmHg 67%
    15:00 +8°C° 0 mm 5 mps 760 mmHg 67%
    16:00 +6°C° 0 mm 4 mps 760 mmHg 71%
    17:00 +5°C° 0 mm 3 mps 760 mmHg 75%
    18:00 +4°C° 0 mm 3 mps 760 mmHg 80%
    19:00 +3°C° 0 mm 3 mps 761 mmHg 81%
    20:00 +3°C° 0 mm 3 mps 761 mmHg 83%
    21:00 +3°C° 0 mm 3 mps 761 mmHg 85%
    22:00 +3°C° 0 mm 3 mps 761 mmHg 86%
    23:00 +3°C° 0 mm 4 mps 761 mmHg 87%

    28 October, Monday

    Time Temperature Precipitation Wind Pressure Humidity
    00:00 +3°C° 0 mm 4 mps 761 mmHg 88%
    01:00 +3°C° 0 mm 4 mps 761 mmHg 89%
    02:00 +3°C° 0 mm 4 mps 761 mmHg 89%
    03:00 +3°C° 0 mm 4 mps 761 mmHg 90%
    04:00 +1°C° 0 mm 4 mps 761 mmHg 91%
    05:00 +1°C° 0 mm 4 mps 761 mmHg 92%
    06:00 +1°C° 0 mm 4 mps 761 mmHg 94%
    07:00 +1°C° 0 mm 5 mps 761 mmHg 90%
    08:00 +2°C° 0 mm 5 mps 761 mmHg 87%
    09:00 +3°C° 0 mm 6 mps 761 mmHg 83%
    10:00 +4°C° 0 mm 6 mps 761 mmHg 79%
    11:00 +5°C° 0 mm 7 mps 761 mmHg 75%
    12:00 +6°C° 0 mm 7 mps 761 mmHg 71%
    13:00 +6°C° 0 mm 7 mps 761 mmHg 71%
    14:00 +6°C° 0 mm 7 mps 761 mmHg 72%
    15:00 +7°C° 0 mm 6 mps 761 mmHg 72%
    16:00 +5°C° 0 mm 6 mps 761 mmHg 76%
    17:00 +4°C° 0 mm 6 mps 761 mmHg 80%
    18:00 +3°C° 0 mm 6 mps 761 mmHg 83%
    19:00 +3°C° 0 mm 6 mps 761 mmHg 84%
    20:00 +3°C° 0 mm 6 mps 762 mmHg 84%
    21:00 +3°C° 0 mm 6 mps 762 mmHg 84%
    22:00 +3°C° 0 mm 6 mps 762 mmHg 85%
    23:00 +2°C° 0 mm 6 mps 762 mmHg 85%

    29 October, Tuesday

    Time Temperature Precipitation Wind Pressure Humidity
    00:00 +2°C° 0 mm 6 mps 762 mmHg 86%
    01:00 +2°C° 0 mm 6 mps 762 mmHg 87%
    02:00 +1°C° 0 mm 6 mps 762 mmHg 88%
    03:00 +1°C° 0 mm 6 mps 762 mmHg 89%
    04:00 +1°C° 0 mm 6 mps 762 mmHg 89%
    05:00 +1°C° 0 mm 6 mps 762 mmHg 89%
    06:00 +1°C° 0 mm 6 mps 762 mmHg 89%
    07:00 +2°C° 0 mm 6 mps 762 mmHg 85%
    08:00 +3°C° 0 mm 6 mps 762 mmHg 82%
    09:00 +3°C° 0 mm 7 mps 763 mmHg 79%
    10:00 +4°C° 0 mm 7 mps 763 mmHg 77%
    11:00 +5°C° 0 mm 7 mps 763 mmHg 76%
    12:00 +6°C° 0 mm 7 mps 763 mmHg 74%
    13:00 +6°C° 0 mm 7 mps 763 mmHg 75%
    14:00 +7°C° 0 mm 6 mps 763 mmHg 76%
    15:00 +7°C° 0 mm 6 mps 763 mmHg 77%
    16:00 +7°C° 0 mm 6 mps 763 mmHg 78%
    17:00 +5°C° 0 mm 6 mps 763 mmHg 80%
    18:00 +4°C° 0 mm 6 mps 764 mmHg 82%
    19:00 +4°C° 0 mm 6 mps 764 mmHg 83%
    20:00 +4°C° 0 mm 6 mps 764 mmHg 83%
    21:00 +4°C° 0 mm 6 mps 765 mmHg 83%
    22:00 +5°C° 0 mm 6 mps 765 mmHg 83%
    23:00 +5°C° 0 mm 6 mps 765 mmHg 84%
    Show more